Terminal Aerodrome Forecast
Issued by NWS Greer, SC

Home | Current Version | Previous Version | Text Only | Print | Product List | Glossary On
Versions: 1 2 3 4 5 6 7 8 9 10 11 12 13 14 15 16 17 18 19 20 21 22 23 24 25 26 27 28 29 30 31 32 33 34 35 36 37 38 39 40 41 42
000
FTUS42 KGSP 251130
TAFAVL
TAF
KAVL 251130Z 2512/2612 VRB03KT P6SM SKC
     FM251700 17006KT P6SM FEW250
     FM252300 18006KT P6SM BKN070
     FM260500 18003KT P6SM -RA BKN045 OVC100
     FM260800 31003KT 2SM BR BKN010 OVC020=

USA.gov is the U.S. government's official web portal to all federal, state and local government web resources and services.